Time,TemperatureF,DewpointF,PressureIn,WindDirection,WindDirectionDegrees,WindSpeedMPH,WindSpeedGustMPH,Humidity,HourlyPrecipIn,Conditions,Clouds,dailyrainin,SoftwareType,DateUTC
2017-04-26 00:03:00,62.1,56.2,29.70,North,355,0.0,0.0,81,0.00,,,0.00,WeatherCatV2.22B31,2017-04-26 04:03:00,
2017-04-26 00:08:00,62.0,56.1,29.70,North,355,0.0,0.0,81,0.00,,,0.00,WeatherCatV2.22B31,2017-04-26 04:08:00,
2017-04-26 00:13:00,62.0,56.4,29.70,North,355,0.0,0.0,82,0.00,,,0.00,WeatherCatV2.22B31,2017-04-26 04:13:00,
2017-04-26 00:18:00,62.0,56.4,29.70,North,355,0.0,0.0,82,0.00,,,0.00,WeatherCatV2.22B31,2017-04-26 04:18:00,
2017-04-26 00:23:00,61.8,56.2,29.70,North,355,0.0,0.0,82,0.00,,,0.00,WeatherCatV2.22B31,2017-04-26 04:23:00,
2017-04-26 00:28:00,61.8,56.2,29.70,North,355,0.0,0.0,82,0.00,,,0.00,WeatherCatV2.22B31,2017-04-26 04:28:00,
2017-04-26 00:33:00,61.6,56.0,29.70,North,355,0.0,0.0,82,0.00,,,0.00,WeatherCatV2.22B31,2017-04-26 04:33:00,
2017-04-26 00:38:00,61.5,56.0,29.70,North,355,0.0,0.0,82,0.00,,,0.00,WeatherCatV2.22B31,2017-04-26 04:38:00,
2017-04-26 00:43:00,61.3,55.8,29.70,North,355,0.0,0.0,82,0.00,,,0.00,WeatherCatV2.22B31,2017-04-26 04:43:00,
2017-04-26 00:48:00,61.2,56.0,29.70,North,355,0.0,0.0,83,0.00,,,0.00,WeatherCatV2.22B31,2017-04-26 04:48:00,
2017-04-26 00:51:00,61.2,56.0,29.70,North,355,0.0,0.0,83,0.00,,,0.00,WeatherCatV2.22B31,2017-04-26 04:51:00,
2017-04-26 00:56:00,61.0,55.8,29.70,North,355,0.0,0.0,83,0.00,,,0.00,WeatherCatV2.22B31,2017-04-26 04:56:00,
2017-04-26 01:01:00,61.0,55.8,29.70,North,355,0.0,0.0,83,0.00,,,0.00,WeatherCatV2.22B31,2017-04-26 05:01:00,
2017-04-26 01:06:00,60.9,55.7,29.70,North,355,0.0,0.0,83,0.00,,,0.00,WeatherCatV2.22B31,2017-04-26 05:06:00,
2017-04-26 01:11:00,60.7,55.5,29.70,North,355,0.0,0.0,83,0.00,,,0.00,WeatherCatV2.22B31,2017-04-26 05:11:00,
2017-04-26 01:16:00,60.7,55.5,29.70,North,355,0.0,0.0,83,0.00,,,0.00,WeatherCatV2.22B31,2017-04-26 05:16:00,
2017-04-26 01:21:00,60.5,55.3,29.70,North,355,0.0,0.0,83,0.00,,,0.00,WeatherCatV2.22B31,2017-04-26 05:21:00,
2017-04-26 01:26:00,60.4,55.2,29.70,North,355,0.0,0.0,83,0.00,,,0.00,WeatherCatV2.22B31,2017-04-26 05:26:00,
2017-04-26 01:31:00,60.1,54.9,29.70,North,355,0.0,0.0,83,0.00,,,0.00,WeatherCatV2.22B31,2017-04-26 05:31:00,
2017-04-26 01:36:00,59.9,55.0,29.70,North,355,0.0,0.0,84,0.00,,,0.00,WeatherCatV2.22B31,2017-04-26 05:36:00,
2017-04-26 01:41:00,59.8,55.0,29.70,North,355,0.0,0.0,84,0.00,,,0.00,WeatherCatV2.22B31,2017-04-26 05:41:00,
2017-04-26 01:46:00,59.8,55.3,29.69,North,355,0.0,0.0,85,0.00,,,0.00,WeatherCatV2.22B31,2017-04-26 05:46:00,
2017-04-26 01:51:00,59.8,55.3,29.69,North,355,0.0,0.0,85,0.00,,,0.00,WeatherCatV2.22B31,2017-04-26 05:51:00,
2017-04-26 01:56:00,59.8,55.3,29.69,North,355,0.0,0.0,85,0.00,,,0.00,WeatherCatV2.22B31,2017-04-26 05:56:00,
2017-04-26 02:01:00,59.6,55.1,29.69,North,355,0.0,0.0,85,0.00,,,0.00,WeatherCatV2.22B31,2017-04-26 06:01:00,